Flag for Mongolia Weather past 2 weeks in Ulaanbaatar, Mongolia

Now
73 °F

Scattered clouds.


Feels Like: 77 °F
Forecast: 51 / 69 °F
Wind: 3 mph from Northwest

Location: Ulan-Bator

Current Time: Aug 20, 2014 at 1:14:10 PM

Latest Report: Aug 20, 2014 at 12:30 PM


Visibility: N/A

Pressure: 30.01 "Hg

Humidity: 47%

Dew point: 52 °F

Location of UlaanbaatarLocation

Historic Weather in Ulaanbaatar — Graph

°F

Ulaanbaatar temperature yesterday

Maximum temperature yesterday: 79 °F (at 1:00 PM)
Minimum temperature yesterday: 50 °F (at 3:30 AM)
Average temperature yesterday: 65 °F

Past Weeks' High & Low Weather Summary

 TemperatureHumidityPressure
High84 °F (Aug 18, 4:00 PM)100% (Aug 17, 6:30 AM)30.09 "Hg (Aug 17, 6:30 AM)
Low37 °F (Aug 6, 5:30 AM)13% (Aug 18, 4:30 PM)29.59 "Hg (Aug 7, 2:00 PM)
Average61 °F59%29.93 "Hg
* Reported Aug 5 12:00 Noon — Aug 20 12:00 Noon, Ulaanbaatar, Weather by CustomWeather, © 2014

Note: Actual official high and low records may vary slightly from our data, if they occured in-between our weather recording intervals... More about our weather records

Advertising

Ulaanbaatar weather history for previous 24 hours

 ConditionsComfort  
Time TempWeatherWind HumidityBarometerVisibility
12:00 PM
Aug 20
70 °FScattered clouds.3 mph57%30.01 "HgN/A
11:30 AM70 °FScattered clouds.3 mph57%30.01 "HgN/A
11:00 AM70 °FPartly sunny.1 mph57%30.04 "HgN/A
10:30 AM68 °FPartly sunny.3 mph56%30.04 "HgN/A
10:00 AM66 °FScattered clouds.1 mph60%30.04 "HgN/A
9:30 AM64 °FPartly sunny.No wind64%30.04 "HgN/A
9:00 AM66 °FPartly sunny.No wind60%30.04 "HgN/A
8:30 AM63 °FPartly sunny.1 mph68%30.07 "HgN/A
8:00 AM61 °FPassing clouds.No wind72%30.07 "HgN/A
7:30 AM59 °FScattered clouds.No wind77%30.04 "HgN/A
7:00 AM57 °FScattered clouds.No wind82%30.04 "HgN/A
6:30 AM57 °FPassing clouds.1 mph82%30.04 "HgN/A
6:00 AM57 °FPassing clouds.1 mph82%30.04 "HgN/A
5:30 AM59 °FPassing clouds.1 mph82%30.04 "HgN/A
5:00 AM59 °FPassing clouds.No wind77%30.04 "HgN/A
4:00 AM59 °FPassing clouds.No wind77%30.04 "HgN/A
3:00 AM61 °FPassing clouds.1 mph72%30.04 "HgN/A
2:00 AM61 °FPassing clouds.3 mph77%30.04 "HgN/A
1:00 AM61 °FPassing clouds.3 mph77%30.07 "HgN/A
12:30 AM63 °FPassing clouds.6 mph73%30.07 "HgN/A
12:00 AM63 °FPassing clouds.3 mph68%30.04 "HgN/A
11:30 PM
Aug 19
63 °FPassing clouds.3 mph68%30.04 "HgN/A
11:00 PM64 °FPassing clouds.3 mph68%30.04 "HgN/A
10:30 PM64 °FPassing clouds.3 mph68%30.04 "HgN/A
10:00 PM63 °FPassing clouds.3 mph68%30.04 "HgN/A
9:30 PM63 °FPassing clouds.3 mph68%30.04 "HgN/A
8:00 PM70 °FPartly sunny.8 mph57%30.01 "HgN/A
7:30 PM70 °FPartly sunny.10 mph57%30.01 "HgN/A
7:00 PM72 °FPartly sunny.10 mph50%30.01 "HgN/A
6:30 PM73 °FPartly sunny.8 mph41%30.01 "HgN/A
6:00 PM75 °FPartly sunny.10 mph39%30.01 "HgN/A
5:30 PM75 °FPartly sunny.13 mph41%30.01 "HgN/A
5:00 PM77 °FPartly sunny.13 mph39%30.01 "HgN/A
4:30 PM79 °FPartly sunny.13 mph37%30.01 "HgN/A
4:00 PM77 °FPartly sunny.13 mph39%30.04 "HgN/A
3:30 PM75 °FScattered clouds.13 mph41%30.04 "HgN/A
3:00 PM75 °FScattered clouds.13 mph39%30.04 "HgN/A
2:30 PM77 °FPleasantly warm.13 mph34%30.04 "HgN/A
2:00 PM77 °FScattered clouds.13 mph36%30.04 "HgN/A
1:30 PM79 °FPartly sunny.10 mph34%30.04 "HgN/A
1:00 PM79 °FPartly sunny.10 mph34%30.07 "HgN/A
Weather by CustomWeather, © 2014

See weather overviewHow to use our weather pages